[[{"header":{"parameterUnit":"m.s-1","parameterCategory":1,"la1":30.2991,"la2":30.254,"lo1":-89.0895,"lo2":-89.0444,"dy":0.0017,"dx":0.0017,"nx":28,"ny":28,"refTime":"2025-01-04T03:00:00:Z","depth":0,"parameterNumber":2,"parameterNumberName":"U-component_of_WINDS"},"data":[0,0,0,0,0,0,0,0,0,0,0,0,0,0,0,0,0,0,0,0,0,0,0,0,0,0,0,0,0,0,0,0,0,0,0,0,0,0,0,0,0,0,0,0,0,0,0,0,0,0,0,0,0,0,0,0,0,0,-1.6537,-1.6538,0,-1.6617,-1.6617,-1.6618,-1.6666,-1.6666,-1.6667,-1.6667,-1.6746,-1.6747,-1.6749,0,0,0,0,0,0,0,0,0,0,0,0,0,-1.6425,-1.6427,-1.6537,-1.6538,-1.6539,-1.6616,-1.6617,-1.6619,-1.6666,-1.6666,-1.6667,-1.6667,-1.6745,-1.6747,-1.6749,0,0,0,0,0,0,0,0,0,0,0,0,0,-1.6486,-1.6427,-1.6537,-1.6572,-1.6576,-1.6616,-1.6617,-1.6619,-1.6666,-1.6666,-1.6667,-1.6667,-1.6744,-1.6747,-1.675,-1.676,0,0,-1.6758,-1.676,0,0,0,0,0,0,0,0,-1.6482,-1.649,-1.6566,-1.657,-1.6574,-1.6632,-1.6607,-1.6666,-1.6666,-1.6632,-1.6667,-1.6667,-1.6707,-1.6713,-1.6727,-1.6764,-1.6767,-1.6759,-1.676,-1.6762,-1.6762,0,0,0,0,0,0,0,-1.6478,-1.6487,-1.6568,-1.6567,-1.6572,-1.6583,-1.6593,-1.6618,-1.6667,-1.6635,-1.6639,-1.6647,-1.671,-1.6724,-1.6729,-1.6768,-1.6759,-1.6761,-1.6763,-1.6764,-1.6817,-1.6817,0,0,0,0,0,0,-1.6468,-1.6483,-1.6566,-1.6571,-1.6528,-1.6585,-1.6595,-1.6613,-1.6666,-1.6675,-1.6647,-1.6649,-1.6719,-1.6726,-1.6732,-1.6748,-1.6761,-1.6764,-1.6766,-1.6817,-1.6817,-1.6817,0,0,0,0,0,0,-1.6466,-1.6475,-1.6563,-1.6528,-1.654,-1.6587,-1.6606,-1.6614,-1.6629,-1.6676,-1.6684,-1.6653,-1.672,-1.6728,-1.6753,-1.6751,-1.6765,-1.6768,-1.6818,-1.6817,-1.6817,-1.6779,0,0,0,0,0,0,-1.6462,-1.6474,-1.6479,-1.6528,-1.6542,-1.6583,-1.6606,-1.6616,-1.6634,-1.6638,-1.6684,-1.6692,-1.6721,-1.6748,-1.6756,-1.6755,-1.677,-1.6818,-1.6817,-1.6817,-1.678,-1.6777,-1.6774,0,0,0,0,0,-1.6458,-1.6465,-1.6479,-1.6489,-1.6549,-1.6582,-1.659,-1.6624,-1.6634,-1.6639,-1.6669,-1.669,-1.675,-1.6751,-1.6759,-1.6759,-1.6818,-1.6817,-1.6817,-1.6782,-1.6778,-1.6774,0,0,0,0,0,0,-1.6414,-1.6472,-1.6488,-1.6511,-1.6541,-1.659,-1.6598,-1.6619,-1.6647,-1.6649,-1.669,-1.6699,-1.672,-1.6742,-1.6742,-1.6772,-1.6787,-1.6788,-1.6757,-1.6753,-1.675,-1.6744,-1.6772,0,0,0,0,0,-1.6407,-1.643,-1.6479,-1.6494,-1.6509,-1.655,-1.6566,-1.659,-1.6623,-1.6636,-1.6668,-1.6698,-1.6724,-1.674,-1.6766,-1.6784,-1.6794,-1.6788,-1.6785,-1.6782,-1.6783,-1.6793,-1.6791,-1.6815,-1.6815,-1.6815,0,0,-1.6392,-1.6426,-1.6438,-1.6486,-1.6512,-1.6535,-1.6561,-1.6583,-1.66,-1.6639,-1.6664,-1.6689,-1.6725,-1.6746,-1.6757,-1.6766,-1.6779,-1.6782,-1.6779,-1.6781,-1.6793,-1.679,-1.6788,-1.6814,-1.6814,-1.6814,0,0,-1.6377,-1.6405,-1.6421,-1.6447,-1.6487,-1.6515,-1.6519,-1.6565,-1.6583,-1.6609,-1.6639,-1.6659,-1.6702,-1.6727,-1.6746,-1.674,-1.6761,-1.6747,-1.6731,-1.6741,-1.6739,-1.6738,-1.6736,-1.6734,-1.6748,-1.6748,-1.6747,0,-1.6353,-1.6389,-1.6426,-1.6447,-1.6467,-1.6504,-1.652,-1.6543,-1.6589,-1.6602,-1.6611,-1.6667,-1.6694,-1.6721,-1.672,-1.6734,-1.6739,-1.6742,-1.6737,-1.6736,-1.6735,-1.6733,-1.6732,-1.6746,-1.6746,-1.6746,-1.6746,0,-1.6358,-1.6382,-1.639,-1.6434,-1.6455,-1.6473,-1.6513,-1.6529,-1.6551,-1.6577,-1.6603,-1.6637,-1.6671,-1.668,-1.6701,-1.671,-1.6714,-1.6729,-1.6745,-1.673,-1.6729,-1.6729,-1.6743,-1.6744,-1.6744,-1.6745,0,0,-1.6317,-1.6382,-1.6384,-1.6404,-1.6452,-1.6471,-1.649,-1.6524,-1.6537,-1.6568,-1.6585,-1.6621,-1.6636,-1.6657,-1.6681,-1.669,-1.6683,-1.6704,-1.6706,-1.6699,-1.6694,-1.6682,-1.6681,-1.6697,-1.6697,-1.6697,-1.6691,0,-1.6308,-1.6346,-1.638,-1.6405,-1.6428,-1.6463,-1.648,-1.6511,-1.6536,-1.6558,-1.6586,-1.6611,-1.6629,-1.6642,-1.6652,-1.6681,-1.6682,-1.6682,-1.6713,-1.6713,-1.6702,-1.668,-1.6668,-1.666,-1.6691,-1.6691,-1.6691,0,-1.6303,-1.6333,-1.636,-1.6405,-1.6416,-1.6431,-1.6464,-1.6486,-1.652,-1.6538,-1.6562,-1.6587,-1.6609,-1.6623,-1.6653,-1.6652,-1.6667,-1.6683,-1.6683,-1.6687,-1.6701,-1.6683,-1.6659,-1.6657,-1.6691,-1.6691,-1.6691,0,-1.627,-1.6317,-1.6339,-1.6356,-1.6409,-1.6418,-1.644,-1.6476,-1.6494,-1.6523,-1.6535,-1.6566,-1.6583,-1.6607,-1.664,-1.6647,-1.6666,-1.6683,-1.6681,-1.668,-1.6683,-1.6683,-1.6661,-1.6693,-1.6693,-1.6693,-1.6693,0,-1.6256,-1.6272,-1.6325,-1.6339,-1.6357,-1.6396,-1.6412,-1.6437,-1.6469,-1.6488,-1.652,-1.6537,-1.658,-1.6602,-1.6628,-1.6649,-1.6657,-1.6671,-1.6678,-1.6668,-1.6666,-1.6678,-1.6679,-1.6693,-1.6693,-1.6693,-1.6693,0,-1.6222,-1.6258,-1.6285,-1.6333,-1.6346,-1.6357,-1.6397,-1.6412,-1.6439,-1.6463,-1.647,-1.6513,-1.6541,-1.6576,-1.6615,-1.6633,-1.665,-1.6661,-1.6638,-1.6642,-1.6639,-1.6638,-1.6623,-1.6623,-1.6656,-1.6655,-1.6655,0,-1.6211,-1.6223,-1.6273,-1.6288,-1.631,-1.6334,-1.6353,-1.6391,-1.6409,-1.645,-1.6459,-1.649,-1.6516,-1.6558,-1.6592,-1.6621,-1.6633,-1.6625,-1.6637,-1.6627,-1.6632,-1.6631,-1.6632,-1.6622,-1.6622,-1.6621,-1.6621,0,-1.6187,-1.6204,-1.6231,-1.6263,-1.6285,-1.6312,-1.6341,-1.6351,-1.6396,-1.6414,-1.6443,-1.6463,-1.6503,-1.6532,-1.6567,-1.6589,-1.6612,-1.6617,-1.6618,-1.6608,-1.6594,-1.6601,-1.663,-1.6617,-1.6617,-1.6618,-1.6618,-1.6618,-1.6164,-1.6177,-1.6213,-1.6241,-1.6267,-1.6293,-1.6309,-1.6339,-1.6363,-1.6399,-1.642,-1.6448,-1.6483,-1.6531,-1.6553,-1.6575,-1.6583,-1.6585,-1.6586,-1.6585,-1.6582,-1.6591,-1.6581,-1.6581,-1.6581,-1.6581,-1.6582,0,-1.6141,-1.6167,-1.6192,-1.6231,-1.6253,-1.6274,-1.6307,-1.6323,-1.6348,-1.6378,-1.6404,-1.6436,-1.6465,-1.6502,-1.6533,-1.6543,-1.6554,-1.655,-1.6549,-1.6554,-1.6572,-1.6568,-1.654,-1.654,-1.654,-1.654,-1.654,-1.654,-1.6132,-1.6155,-1.6176,-1.6212,-1.6237,-1.6265,-1.6282,-1.6306,-1.6331,-1.6366,-1.639,-1.6414,-1.6447,-1.6481,-1.6508,-1.6518,-1.6527,-1.652,-1.6532,-1.6549,-1.6553,-1.6556,-1.6552,-1.6521,-1.6521,-1.6512,-1.6512,-1.6512]},{"header":{"parameterUnit":"m.s-1","parameterCategory":1,"la1":30.2991,"la2":30.254,"lo1":-89.0895,"lo2":-89.0444,"dy":0.0017,"dx":0.0017,"nx":28,"ny":28,"refTime":"2025-01-04T03:00:00:Z","depth":0,"parameterNumber":3,"parameterNumberName":"V-component_of_WINDS"},"data":[0,0,0,0,0,0,0,0,0,0,0,0,0,0,0,0,0,0,0,0,0,0,0,0,0,0,0,0,0,0,0,0,0,0,0,0,0,0,0,0,0,0,0,0,0,0,0,0,0,0,0,0,0,0,0,0,0,0,6.0834,6.0834,0,6.082,6.082,6.082,6.0776,6.0775,6.0774,6.0773,6.0754,6.0755,6.0755,0,0,0,0,0,0,0,0,0,0,0,0,0,6.0822,6.0822,6.0834,6.0834,6.0834,6.082,6.082,6.082,6.0776,6.0775,6.0774,6.0772,6.0754,6.0755,6.0755,0,0,0,0,0,0,0,0,0,0,0,0,0,6.0819,6.0822,6.0834,6.0811,6.0808,6.082,6.082,6.082,6.0776,6.0775,6.0773,6.0772,6.0754,6.0755,6.0755,6.0788,0,0,6.0757,6.0757,0,0,0,0,0,0,0,0,6.082,6.082,6.0814,6.0812,6.081,6.0798,6.0809,6.0809,6.0777,6.0788,6.0773,6.0771,6.077,6.0769,6.077,6.0787,6.0786,6.0757,6.0758,6.0758,6.0758,0,0,0,0,0,0,0,6.082,6.082,6.0829,6.0814,6.0811,6.08,6.0798,6.0809,6.0787,6.0787,6.0784,6.0783,6.0768,6.0769,6.0769,6.0786,6.0757,6.0758,6.0758,6.0758,6.0835,6.0837,0,0,0,0,0,0,6.0824,6.0821,6.0829,6.0828,6.0811,6.0802,6.0799,6.0803,6.0787,6.0783,6.0784,6.0781,6.0769,6.0768,6.0768,6.0809,6.0758,6.0758,6.0759,6.0833,6.0835,6.0837,0,0,0,0,0,0,6.0824,6.0825,6.083,6.0824,6.0823,6.0803,6.0808,6.0804,6.0805,6.0785,6.0781,6.0789,6.0768,6.0767,6.0785,6.0807,6.0759,6.0759,6.0831,6.0834,6.0836,6.0889,0,0,0,0,0,0,6.0823,6.0825,6.0837,6.0824,6.0824,6.0847,6.0809,6.0805,6.0806,6.0802,6.0788,6.0785,6.0766,6.0784,6.0786,6.0807,6.076,6.0829,6.0833,6.0836,6.0885,6.0893,6.0899,0,0,0,0,0,6.0823,6.0851,6.0838,6.0839,6.0839,6.0848,6.0848,6.0828,6.0808,6.0821,6.0809,6.0785,6.0805,6.0786,6.0787,6.081,6.0828,6.0832,6.0835,6.0881,6.0891,6.0899,0,0,0,0,0,0,6.0864,6.0848,6.0834,6.0858,6.0856,6.0841,6.0856,6.0838,6.0839,6.0835,6.0808,6.0805,6.0828,6.082,6.08,6.0843,6.0813,6.0817,6.0847,6.0856,6.0863,6.0865,6.076,0,0,0,0,0,6.0876,6.0886,6.0871,6.0894,6.0894,6.0876,6.0878,6.0864,6.0859,6.0857,6.0846,6.0841,6.0847,6.0851,6.0854,6.0883,6.0881,6.09,6.0907,6.0913,6.0917,6.0936,6.0945,6.085,6.085,6.0849,0,0,6.09,6.0893,6.09,6.0902,6.0898,6.091,6.0874,6.0886,6.0895,6.0858,6.0876,6.0868,6.0861,6.0886,6.0896,6.088,6.0943,6.0918,6.0923,6.0923,6.0941,6.095,6.0958,6.0852,6.0852,6.0851,0,0,6.0951,6.0946,6.0966,6.0964,6.096,6.0949,6.0954,6.0943,6.0937,6.0955,6.0929,6.0938,6.0947,6.0945,6.0945,6.1001,6.098,6.1002,6.104,6.1059,6.1067,6.1073,6.1096,6.1104,6.1006,6.1007,6.1007,0,6.0981,6.0998,6.0978,6.0995,6.0997,6.0968,6.0989,6.0987,6.0984,6.0986,6.0969,6.0983,6.0976,6.1002,6.1017,6.1016,6.1023,6.1004,6.1067,6.1074,6.1079,6.1101,6.1109,6.101,6.1009,6.1009,6.1009,0,6.1038,6.105,6.1067,6.1069,6.1073,6.1091,6.1074,6.1081,6.1067,6.1058,6.1078,6.1069,6.1073,6.1078,6.1062,6.1103,6.1093,6.1072,6.1041,6.1092,6.1112,6.112,6.1014,6.1013,6.1012,6.1011,0,0,6.1111,6.1105,6.1112,6.1114,6.1109,6.1118,6.1136,6.1142,6.115,6.1149,6.1165,6.1176,6.1158,6.1158,6.1142,6.1158,6.1208,6.1135,6.1135,6.1151,6.1255,6.1273,6.1283,6.1194,6.1195,6.1196,6.1257,0,6.1162,6.1194,6.1179,6.1213,6.1226,6.12,6.1216,6.1216,6.1208,6.1218,6.1209,6.1219,6.1192,6.1193,6.1208,6.1198,6.1228,6.1194,6.1209,6.121,6.1214,6.1292,6.131,6.1367,6.1264,6.1265,6.1266,0,6.1224,6.1231,6.1267,6.1265,6.127,6.1284,6.1291,6.13,6.13,6.1293,6.1297,6.1279,6.1297,6.1267,6.1293,6.127,6.1276,6.1272,6.1274,6.1276,6.1242,6.1298,6.1385,6.1394,6.1278,6.1277,6.1276,0,6.1278,6.1295,6.1321,6.1323,6.1319,6.1331,6.133,6.1329,6.1335,6.134,6.1344,6.1351,6.1355,6.136,6.1345,6.1324,6.1375,6.1342,6.1371,6.1372,6.1384,6.1383,6.1474,6.1384,6.1384,6.1384,6.1384,0,6.1337,6.1361,6.1346,6.1361,6.1388,6.1371,6.1398,6.1394,6.1394,6.1408,6.1385,6.1399,6.1378,6.139,6.1378,6.1404,6.1405,6.1401,6.1398,6.1405,6.1406,6.1409,6.1405,6.1386,6.1386,6.1385,6.1385,0,6.1402,6.1392,6.1418,6.1415,6.1415,6.1435,6.1432,6.1447,6.144,6.1459,6.1462,6.145,6.1464,6.145,6.1462,6.1454,6.149,6.1479,6.1491,6.1489,6.152,6.1518,6.1617,6.1631,6.153,6.1531,6.1532,0,6.1441,6.1459,6.146,6.147,6.1471,6.1486,6.1494,6.1478,6.1487,6.1491,6.1505,6.1518,6.1527,6.1551,6.1543,6.1553,6.1544,6.1579,6.1545,6.1553,6.1548,6.1548,6.1551,6.1586,6.1587,6.1588,6.1588,0,6.1512,6.1508,6.152,6.1533,6.1544,6.1552,6.1558,6.1567,6.1551,6.1562,6.1578,6.1586,6.1601,6.1614,6.1623,6.1621,6.1603,6.1599,6.1607,6.1614,6.1621,6.1621,6.1511,6.1597,6.1596,6.1595,6.1595,6.1595,6.1566,6.1584,6.1589,6.1604,6.1609,6.1616,6.1632,6.1628,6.1641,6.1654,6.1644,6.1664,6.1666,6.1676,6.1678,6.1693,6.1678,6.1689,6.1692,6.1695,6.1701,6.1618,6.1694,6.1694,6.1693,6.1693,6.1693,0,6.1639,6.1642,6.1657,6.1669,6.1683,6.1667,6.1674,6.1686,6.1705,6.1709,6.1721,6.1741,6.1755,6.175,6.1763,6.1777,6.1769,6.1781,6.178,6.1781,6.1712,6.1705,6.1787,6.1787,6.1787,6.1787,6.1787,6.1787,6.1679,6.1709,6.1706,6.1738,6.174,6.1761,6.1768,6.1775,6.178,6.1804,6.1817,6.1815,6.1816,6.183,6.1843,6.1841,6.1848,6.1863,6.1859,6.1794,6.1785,6.1776,6.177,6.1864,6.1864,6.1927,6.1927,6.1928]}]]